Hourly Data Report for November 23, 2017

All times are specified in Local Standard Time (LST). Add 1 hour to adjust for Daylight Saving Time where and when it is observed.

GIMLI CLIMATE
MANITOBA

50°38'00.000" N
97°03'00.000" W
230.10 m
5031042
71748
PGH

Download Data

Hourly Data (November 2017)
Hourly Data Report for November 23, 2017
Temp Definition
°C
Dew Point Temp Definition
°C
Rel Hum Definition
%
Wind Dir Definition
10's deg

Wind Spd Definition
km/h
Visibility Definition
km
Stn Press Definition
kPa
Hmdx Definition


Wind Chill Definition


Weather Definition


TIME
00:00 -10.0 -11.2 90 18 8   98.54   -14 LegendNANA
01:00 -9.8 -11.0 91 26 5   98.49   -13 LegendNANA
02:00 -8.6 -9.8 91 17 5   98.47   -11 LegendNANA
03:00 -7.8 -9.0 92 26 5   98.44   -10 LegendNANA
04:00 -7.2 -9.1 86 32 8   98.40   -11 LegendNANA
05:00 -7.8 -11.1 77 35 16   98.43   -14 LegendNANA
06:00 -8.7 -12.7 73 2 13   98.42   -15 LegendNANA
07:00 -8.6 -12.3 75 1 9   98.40   -13 LegendNANA
08:00 -8.5 -12.1 75 1 5   98.35   -11 LegendNANA
09:00 -8.0 -11.7 74 9 4   98.27   -10 LegendNANA
10:00 -7.7 -11.1 77 7 8   98.18   -12 LegendNANA
11:00 -7.2 -11.1 74 16 8   98.08   -11 LegendNANA
12:00 -6.3 -10.5 72 12 8   97.90   -10 LegendNANA
13:00 -5.6 -8.9 77 14 12   97.76   -11 LegendNANA
14:00 -5.2 -8.2 79 11 13   97.53   -10 LegendNANA
15:00 -3.9 -7.5 76 14 16   97.29   -9 LegendNANA
16:00 -3.5 -6.5 80 13 12   97.17   -8 LegendNANA
17:00 -2.6 -6.7 74 15 17   97.03   -8 LegendNANA
18:00 -2.3 -5.3 80 16 23   96.77   -9 LegendNANA
19:00 -1.8 -3.0 92 16 19   96.53   -7 LegendNANA
20:00 -0.5 -1.5 93 18 30   96.24   -7 LegendNANA
21:00 -0.5 -1.9 91 19 20   96.15   -6 LegendNANA
22:00 -1.3 -2.4 92 18 9   96.01   -5 LegendNANA
23:00 -2.3 -3.1 94 15 8   95.84   -5 LegendNANA

Notes on Data Quality.

Legend

  • E = Estimated
  • M = Missing
  • NA = Not Available
  • ‡ = Partner data that is not subject to review by the National Climate Archives
Date modified: